This demonstration page uses our WeatherBlox Daily Observations layout. Learn more.

Left ArrowRight Arrow

Hourly Observations for July 11, 2021

Temp ( °F °C ) Dew Point ( °F °C ) Humidity (%) Winds ( mph kmh ) Pressure ( in mb ) Visibility ( mi km ) Precip ( " mm )
2:15 am 02:15 Mostly Cloudy 72 22 64 18 78 78 N N/A 30.04 1017 10 16 N/A
2:35 am 02:35 Cloudy 72 22 64 18 78 78 S 3 6 30.05 1018 10 16 N/A
2:55 am 02:55 Cloudy 72 22 64 18 78 78 N N/A 30.04 1017 10 16 N/A
3:15 am 03:15 Mostly Cloudy 73 23 63 17 69 69 SSE 3 6 30.04 1017 10 16 N/A
3:35 am 03:35 Cloudy 72 22 64 18 78 78 S 3 6 30.04 1017 10 16 N/A
3:55 am 03:55 Cloudy 72 22 64 18 78 78 N N/A 30.05 1018 10 16 N/A
4:15 am 04:15 Cloudy 70 21 64 18 83 83 N N/A 30.04 1017 10 16 N/A
4:35 am 04:35 Cloudy 72 22 64 18 78 78 N N/A 30.05 1018 10 16 N/A
4:55 am 04:55 Cloudy 70 21 64 18 83 83 N N/A 30.05 1018 10 16 N/A
5:15 am 05:15 Cloudy 72 22 64 18 78 78 N N/A 30.05 1018 10 16 N/A
5:35 am 05:35 Cloudy 72 22 64 18 78 78 N N/A 30.06 1018 10 16 N/A
5:55 am 05:55 Cloudy 72 22 64 18 78 78 N N/A 30.07 1018 10 16 N/A
6:15 am 06:15 Cloudy 72 22 64 18 78 78 N N/A 30.07 1018 10 16 N/A
6:35 am 06:35 Cloudy 70 21 64 18 83 83 E 3 6 30.07 1018 10 16 N/A
6:55 am 06:55 Cloudy 70 21 64 18 83 83 N N/A 30.07 1018 10 16 N/A
7:15 am 07:15 Cloudy 70 21 66 19 88 88 SE 5 7 30.07 1018 10 16 N/A
7:35 am 07:35 Cloudy 72 22 66 19 83 83 SSE 5 7 30.07 1018 10 16 N/A
7:55 am 07:55 Cloudy 72 22 66 19 83 83 S 9 15 30.07 1018 10 16 N/A
8:15 am 08:15 Cloudy 72 22 68 20 88 88 S 7 11 30.07 1018 10 16 N/A
8:35 am 08:35 Cloudy 72 22 68 20 88 88 S 8 13 30.07 1018 10 16 N/A
8:55 am 08:55 Cloudy 72 22 68 20 88 88 S 5 7 30.07 1018 10 16 N/A
9:15 am 09:15 Cloudy 72 22 68 20 88 88 S 8 13 30.07 1018 10 16 N/A
9:35 am 09:35 Cloudy 72 22 68 20 88 88 SSW 9 15 30.07 1018 10 16 N/A
9:55 am 09:55 Cloudy 72 22 68 20 88 88 S 9 15 30.07 1018 10 16 N/A
10:15 am 10:15 Cloudy 72 22 70 21 94 94 S 6 9 30.07 1018 10 16 N/A
10:35 am 10:35 Cloudy 73 23 70 21 89 89 SSW 10 17 30.07 1018 10 16 N/A
10:55 am 10:55 Cloudy 77 25 70 21 79 79 S 12 19 30.06 1018 10 16 N/A
11:15 am 11:15 Cloudy 77 25 72 22 83 83 S 8 13 30.05 1018 10 16 N/A
11:35 am 11:35 Cloudy 79 26 72 22 79 79 SW 6 9 30.06 1018 10 16 N/A
11:55 am 11:55 Cloudy 81 27 72 22 74 74 SSW 14 22 30.05 1018 10 16 N/A
12:15 pm 12:15 Mostly Cloudy 82 28 72 22 70 70 SSW 13 20 30.05 1018 10 16 N/A
12:35 pm 12:35 Partly Cloudy 82 28 73 23 74 74 SSW 10 17 30.04 1017 10 16 N/A
12:55 pm 12:55 Partly Cloudy 84 29 72 22 66 66 S 13 20 30.03 1017 10 16 N/A
1:15 pm 13:15 Partly Cloudy 86 30 72 22 62 62 SSW 6 9 30.03 1017 10 16 N/A
1:35 pm 13:35 Partly Cloudy 86 30 72 22 62 62 S 13 20 30.02 1017 10 16 N/A
1:55 pm 13:55 Partly Cloudy 88 31 70 21 55 55 S 14 22 30.00 1016 10 16 N/A
2:15 pm 14:15 Partly Cloudy 88 31 70 21 55 55 S 12 19 30.00 1016 10 16 N/A
2:35 pm 14:35 Partly Cloudy 88 31 70 21 55 55 WSW 9 15 29.99 1015 10 16 N/A
2:55 pm 14:55 Sunny 90 32 70 21 52 52 SW 8 13 29.99 1015 10 16 N/A
3:15 pm 15:15 Partly Cloudy 90 32 70 21 52 52 SSW 13 20 29.98 1015 10 16 N/A
3:35 pm 15:35 Partly Cloudy 90 32 70 21 52 52 SSW 13 20 29.98 1015 10 16 N/A
3:55 pm 15:55 Partly Cloudy 88 31 70 21 55 55 S 9 15 29.98 1015 10 16 N/A
4:15 pm 16:15 Mostly Cloudy 88 31 72 22 59 59 SSE 12 19 29.97 1015 10 16 N/A
4:35 pm 16:35 Partly Cloudy 90 32 72 22 55 55 SSE 14 22 29.97 1015 10 16 N/A
4:55 pm 16:55 Mostly Cloudy 88 31 72 22 59 59 S 12 19 29.97 1015 10 16 N/A
5:15 pm 17:15 Partly Cloudy 90 32 72 22 55 55 SSW 12 19 29.96 1014 10 16 N/A
5:35 pm 17:35 Partly Cloudy 88 31 72 22 59 59 S 13 20 29.96 1014 10 16 N/A
5:55 pm 17:55 Mostly Cloudy 88 31 73 23 62 62 SSE 9 15 29.95 1014 10 16 N/A
6:15 pm 18:15 Partly Cloudy 88 31 72 22 59 59 S 15 24 29.94 1014 10 16 N/A
6:35 pm 18:35 Partly Cloudy 88 31 72 22 59 59 S 9 15 29.94 1014 10 16 N/A
6:55 pm 18:55 Sunny 88 31 72 22 59 59 SSW 14 22 29.94 1014 10 16 N/A
7:15 pm 19:15 Sunny 86 30 72 22 62 62 S 13 20 29.95 1014 10 16 N/A
7:35 pm 19:35 Sunny 86 30 72 22 62 62 SSW 10 17 29.94 1014 10 16 N/A
7:55 pm 19:55 Sunny 84 29 72 22 66 66 S 14 22 29.94 1014 10 16 N/A
8:15 pm 20:15 Sunny 82 28 72 22 70 70 S 13 20 29.94 1014 10 16 N/A
8:35 pm 20:35 Sunny 82 28 72 22 70 70 SSW 9 15 29.95 1014 10 16 N/A
8:55 pm 20:55 Clear 81 27 72 22 74 74 SW 7 11 29.96 1015 10 16 N/A
9:15 pm 21:15 Clear 81 27 72 22 74 74 SW 3 6 29.98 1015 10 16 N/A
9:35 pm 21:35 Clear 81 27 72 22 74 74 N N/A 29.99 1016 10 16 N/A
9:55 pm 21:55 Clear 81 27 72 22 74 74 SSW 3 6 29.99 1016 10 16 N/A
10:15 pm 22:15 Clear 79 26 72 22 79 79 S 6 9 29.98 1015 10 16 N/A
10:35 pm 22:35 Clear 79 26 72 22 79 79 S 6 9 29.98 1015 10 16 N/A
10:55 pm 22:55 Clear 77 25 72 22 83 83 SSW 5 7 30.00 1016 10 16 N/A
11:15 pm 23:15 Clear 79 26 72 22 79 79 S 6 9 30.00 1016 10 16 N/A
11:35 pm 23:35 Clear 77 25 72 22 83 83 S 6 9 30.01 1016 10 16 N/A

Powered by AerisWeather